Terug naar catalogus

KOREASAT 7

ActiefCommunicatieGEO
NORAD 42691·PAYLOAD·🇰🇷 South Korea

Gelanceerd May 4, 2017 vanaf Guiana Space Centre

Loading…

TLE

VersSource: Space-Track

Epoch: Sep 14, 2026, 14:21 UTC

1 42691U 17023A   26257.59806778 -.00000370  00000-0  00000-0 0  9998
2 42691   0.0221  36.4859 0000952 151.6227 136.6795  1.00271929 34267

Volg KOREASAT 7 in realtime met AllMySat

Download on the App Store